Regional Weather Roundup
Issued by NWS

Home | Current Version | Previous Version | Text Only | Print | Product List | Glossary On
Versions: 1 2 3 4 5 6 7 8 9 10 11 12 13 14 15 16 17 18 19 20 21 22 23 24 25 26 27 28 29 30 31 32 33 34 35 36 37 38 39 40 41 42 43 44 45 46 47 48 49 50
000
ASUS43 KLMK 270510
RWRKY
KENTUCKY REGIONAL WEATHER ROUNDUP
NATIONAL WEATHER SERVICE LOUISVILLE KY
1200 AM EST MON FEB 27 2017

NOTE "FAIR" INDICATES FEW OR NO CLOUDS BELOW 12,000 FEET
WITH NO SIGNIFICANT WEATHER AND/OR OBSTRUCTIONS TO VISIBILITY.

KYZ001>023-026-027-061>063-070>075-270600-
WESTERN AND SOUTH CENTRAL KENTUCKY

CITY           SKY/WX    TMP DP  RH WIND       PRES   REMARKS
PADUCAH        CLOUDY    51  29  42 VRB6      30.15S
HENDERSON      CLOUDY    45  28  53 CALM      30.16S
OWENSBORO      CLOUDY    47  21  35 SE3       30.17R
HOPKINSVILLE   CLOUDY    49  20  31 CALM      30.17R
BOWLING GREEN  CLOUDY    46  24  42 CALM      30.18R
GLASGOW        CLOUDY    45  24  45 CALM      30.18R
$$

KYZ024-025-028>034-038-045-046-053-270600-
NORTH CENTRAL KENTUCKY

CITY           SKY/WX    TMP DP  RH WIND       PRES   REMARKS
LOUISVILLE/SDF CLOUDY    45  18  34 SE5       30.16F
LOUISVILLE/LOU CLOUDY    45  20  36 CALM      30.17S
FORT KNOX      NOT AVBL
$$

KYZ035>037-039>044-047>052-055>060-089>105-270600-
NORTHEAST KENTUCKY

CITY           SKY/WX    TMP DP  RH WIND       PRES   REMARKS
LEXINGTON      CLOUDY    45  17  32 S9        30.17F
COVINGTON      CLOUDY    39  21  48 S6        30.17R WCI  35
FRANKFORT      CLOUDY    43  20  39 CALM      30.16F
$$

KYZ054-064>069-076>088-106>120-270600-
SOUTHEAST KENTUCKY

CITY           SKY/WX    TMP DP  RH WIND       PRES   REMARKS
JACKSON        MOCLDY    41  19  41 SW3       30.19F
LONDON         CLOUDY    37  25  61 SE3       30.20S
SOMERSET       CLOUDY    37  25  60 CALM      30.20F
MIDDLESBORO    PTCLDY    34  28  80 CALM      30.24S
MONTICELLO     CLOUDY    45  23  42 E8        30.19F
$$





USA.gov is the U.S. government's official web portal to all federal, state and local government web resources and services.